Location: ??????
(41.3164°N, 22.6615°E)
Time: 09:47:50
(UTC+00:00)

CAS-4B - Visible Passes

Search period start: 04 July 2022 00:00
Search period end: 14 July 2022 00:00
Orbit: 524 x 536 km, 43.0° (Epoch: 03 July)

Date Brightness Start Highest point End Pass type
(mag) Time Alt. Az. Time Alt. Az. Time Alt. Az.
04 Jul ? 00:33:56 48° W 00:34:59 84° NNW 00:39:03 10° ENE visible
04 Jul ? 02:11:06 10° W 02:15:09 70° N 02:19:12 10° E visible
05 Jul ? 00:21:43 54° W 00:22:32 78° N 00:26:36 10° ENE visible
05 Jul ? 01:58:41 10° WNW 02:02:43 73° N 02:06:46 10° E visible
06 Jul ? 00:09:32 61° WNW 00:10:06 74° N 00:14:09 10° ENE visible
06 Jul ? 01:46:14 10° WNW 01:50:17 78° N 01:54:20 10° E visible
06 Jul ? 23:57:26 68° NW 23:57:40 70° N 00:01:42 10° E visible
07 Jul ? 01:33:47 10° WNW 01:37:50 84° NNE 01:41:53 10° ESE visible
07 Jul ? 23:45:25 66° NNE 23:45:25 66° NNE 23:49:16 10° E visible
08 Jul ? 01:21:20 10° WNW 01:25:23 89° SSW 01:29:25 10° ESE visible
08 Jul ? 23:33:39 50° ENE 23:33:39 50° ENE 23:36:49 10° E visible
09 Jul ? 01:08:53 10° WNW 01:12:54 81° SSW 01:16:57 10° ESE visible
09 Jul ? 23:22:21 28° ENE 23:22:21 28° ENE 23:24:23 10° E visible
10 Jul ? 00:57:37 19° W 01:00:26 71° SSW 01:04:27 10° ESE visible
10 Jul ? 19:44:28 10° SSW 19:47:34 29° SSE 19:47:34 29° SSE visible
11 Jul ? 00:47:17 52° WSW 00:47:56 62° SSW 00:51:55 10° ESE visible
11 Jul ? 02:24:52 10° WSW 02:27:26 16° SW 02:29:59 10° S visible
11 Jul ? 19:31:46 10° SW 19:35:27 35° SSE 19:38:07 16° E visible
11 Jul ? 21:11:16 10° W 21:13:27 31° W 21:13:27 31° W visible
12 Jul ? 00:38:11 18° SE 00:38:11 18° SE 00:39:22 10° SE visible
12 Jul ? 02:13:37 12° WSW 02:14:50 13° SW 02:16:48 10° S visible
12 Jul ? 19:19:07 10° SW 19:22:56 42° SSE 19:26:45 10° E visible
12 Jul ? 20:58:48 10° W 21:02:44 76° NNW 21:02:44 76° NNW visible
13 Jul ? 19:06:31 10° SW 19:10:25 50° SSE 19:14:19 10° E visible
13 Jul ? 20:46:20 10° W 20:50:22 72° N 20:51:15 51° ENE visible
